Regional Weather Roundup
Issued by NWS Cleveland, OH

Home | Current Version | Previous Version | Graphics & Text | Print | Product List | Glossary On
Versions: 1 2 3 4 5 6 7 8 9 10 11 12 13 14 15 16 17 18 19 20 21 22 23 24 25 26 27 28 29 30 31 32 33 34 35 36 37 38 39 40 41 42 43 44 45 46 47 48 49 50
000
ASUS41 KCLE 212300
RWRCLE
OHIO REGIONAL WEATHER ROUNDUP
NATIONAL WEATHER SERVICE WILMINGTON, OH
600 PM EST SUN DEC 21 2014

NOTE: "FAIR" INDICATES FEW OR NO CLOUDS BELOW 12,000 FEET WITH NO
SIGNIFICANT WEATHER AND/OR OBSTRUCTIONS TO VISIBILITY.

OHZ001>008-015>018-024>027-034-035-043-044-220000-
   NORTHWEST OHIO

CITY           SKY/WX    TMP DP  RH WIND       PRES   REMARKS
DEFIANCE       CLEAR     31  25  78 E6        30.21S WCI  25
FINDLAY        PTCLDY    31  24  75 E6        30.20R WCI  25
TOLEDO EXPRESS PTCLDY    31  24  75 CALM      30.22S
TOLEDO METCALF PTCLDY    31  23  72 CALM      30.23S
LIMA           PTCLDY    34  24  67 E6        30.19R WCI  29
$$

OHZ009>014-019>023-028>033-038-089-220000-
   NORTHEAST OHIO

CITY           SKY/WX    TMP DP  RH WIND       PRES   REMARKS
CLE-HOPKINS    CLOUDY    30  22  72 S6        30.28S WCI  24
CLE-LAKEFRONT  CLOUDY    32  21  64 SE7       30.26S WCI  26
CUY CO. ARPT   CLOUDY    32  23  69 SE7       30.26S WCI  26
LORAIN-ELYRIA  CLEAR     29  22  75 SE8       30.25S WCI  21
ASHTABULA      CLOUDY    31  22  69 S7        30.26S WCI  24
AKRON-CANTON   CLOUDY    30  20  66 SE5       30.23S WCI  25
WOOSTER        NOT AVBL
MANSFIELD      PTCLDY    28  22  78 E8        30.20R WCI  20
YOUNGSTOWN     CLOUDY    30  21  69 SE6       30.24S WCI  24
$$

OHZ042-051>053-060>062-070>072-077>081-220000-
  SOUTHWEST OHIO

CITY           SKY/WX    TMP DP  RH WIND       PRES   REMARKS
CINC-COVINGTON MOCLDY    32  24  72 E6        30.16F WCI  26
CINC-LUNKEN    CLEAR     31  25  78 E3        30.20F
HAMILTON       CLEAR     31  25  78 E6        30.19F WCI  25
DAYTON         NOT AVBL
WRIGHT-PAT AFB NOT AVBL
DAYTON GENERAL PTCLDY    33  25  72 E5        30.17S WCI  29
WILMINGTON     PTCLDY    30  25  81 E6        30.18R WCI  24
$$

OHZ036-037-039>041-045>050-054>059-063>069-073>076-082>088-220000-
  CENTRAL AND SOUTHEAST OHIO

CITY           SKY/WX    TMP DP  RH WIND       PRES   REMARKS
COLUMBUS       MOCLDY    32  22  66 E3        30.20F
OSU AIRPORT    PTCLDY    30  22  72 E6        30.20S WCI  24
BOLTON FIELD   MOCLDY    32  25  74 E3        30.20S
RICKENBACK AFB NOT AVBL
NEWARK         PTCLDY    31  22  69 E6        30.21S WCI  25
MARION         MOCLDY    30  22  72 SE5       30.20S WCI  25
LANCASTER      PTCLDY    34  25  69 E3        30.21F
ZANESVILLE     PTCLDY    30  23  75 NE3       30.22F
NEW PHILLY     MOCLDY    30  22  72 CALM      30.24F
$$



USA.gov is the U.S. government's official web portal to all federal, state and local government web resources and services.